1530799200.22,65352,21.06,74108.8,20.17,-3.03,-8.11,0,*46
1530799201.41,65353,21.06,74108.3,20.15,-3.15,-8.17,0,*44
1530799202.6,65354,21.06,74110.3,20.11,-4.13,-9.31,0,*43
1530799203.81,65355,21.06,74106.0,20.09,-3.27,-8.33,0,*48
1530799205.01,65356,21.06,74106.0,20.07,-3.27,-8.37,0,*41
1530799206.24,65357,21.06,74106.8,20.05,-4.21,-9.27,0,*43
1530799207.51,65358,21.13,74110.8,20.01,-3.51,-8.51,0,*48
1530799208.72,65359,21.06,74106.5,19.99,-3.51,-8.55,0,*46
1530799209.93,65360,21.06,74106.5,19.95,-3.67,-8.71,0,*43
1530799211.17,65361,21.06,74104.3,19.93,-3.71,-8.67,0,*44
1530799212.38,65362,21.06,74106.5,19.93,-3.35,-8.67,0,*47
1530799213.6,65363,21.06,74106.5,19.89,-4.21,-9.31,0,*4D
1530799214.87,65364,21.06,74106.5,19.85,-4.01,-9.11,0,*46
1530799216.09,65365,21.06,74108.5,19.85,-3.35,-8.41,0,*43
1530799217.28,65366,21.06,74110.0,19.83,-2.27,-7.15,0,*4A
1530799218.5,65367,21.06,74106.8,19.83,-1.99,-6.89,0,*49
1530799219.74,65368,21.06,74110.3,19.81,-1.87,-6.77,0,*4A
1530799220.96,65369,21.06,74108.3,19.81,-1.55,-6.35,0,*42
1530799222.18,65370,21.06,74108.5,19.83,-1.47,-6.35,0,*4B
1530799223.42,65371,21.06,74106.8,19.83,-1.43,-6.23,0,*49
1530799224.64,65372,21.06,74104.0,19.83,-1.21,-5.93,0,*46
1530799225.84,65373,21.06,74108.5,19.83,-0.73,-5.51,0,*7F
1530799227.05,65374,21.06,74108.5,19.83,-0.45,-5.19,0,*71
1530799228.27,65375,21.06,74110.8,19.87,-1.05,-5.97,0,*47
1530799229.49,65376,21.06,74106.3,19.87,-1.05,-6.01,0,*48
1530799230.71,65377,21.13,74110.8,19.87,-1.43,-6.55,0,*4A
1530799231.94,65378,21.06,74106.5,19.85,-1.79,-6.93,0,*44
1530799233.17,65379,21.06,74108.0,19.87,-1.91,-7.05,0,*4F
1530799234.39,65380,21.06,74106.0,19.87,-1.95,-7.15,0,*4C
1530799235.57,65381,21.06,74106.3,19.87,-1.63,-6.69,0,*4E
1530799236.8,65382,21.06,74110.3,19.85,-1.29,-6.31,0,*4C
1530799237.98,65383,21.06,74108.0,19.87,-0.57,-5.35,0,*70
1530799239.21,65384,21.06,74108.0,19.89,0.09,-4.69,0,*67
1530799240.39,65385,21.06,74108.5,19.91,0.01,-4.65,0,*6B
1530799241.59,65386,21.06,74106.5,19.91,0.29,-4.57,0,*53
1530799242.8,65387,21.13,74108.5,19.99,-0.07,-4.93,0,*43
1530799243.99,65388,21.13,74110.8,19.99,-0.53,-5.47,0,*75
1530799245.2,65389,21.06,74110.3,20.01,-0.65,-5.47,0,*7A
1530799246.42,65390,21.13,74108.3,20.01,0.01,-4.93,0,*65
1530799247.62,65391,21.06,74108.5,20.03,0.37,-4.45,0,*58
1530799248.88,65392,21.13,74108.3,20.05,-0.93,-5.77,0,*7E
1530799250.1,65393,21.13,74110.0,20.07,-1.21,-6.27,0,*43
1530799251.29,65394,21.06,74110.8,20.07,-1.55,-6.77,0,*42
1530799252.54,65395,21.06,74104.5,20.07,-1.13,-6.27,0,*44
1530799253.75,65396,21.06,74108.3,20.11,-0.65,-5.65,0,*75
1530799255.01,65397,21.13,74110.0,20.09,-0.85,-5.93,0,*7A
1530799256.25,65398,21.13,74108.3,20.09,-0.15,-5.03,0,*75
1530799257.47,65399,21.06,74110.8,20.11,-0.19,-5.19,0,*7A
1530799258.74,65400,21.06,74108.8,20.13,-0.85,-5.93,0,*78
1530799259.97,65401,21.13,74110.5,20.13,-0.97,-6.09,0,*7A
1530799261.22,65402,21.13,74108.0,20.17,-0.19,-5.23,0,*70
1530799262.46,65403,21.06,74108.0,20.17,-0.69,-5.73,0,*73
1530799263.69,65404,21.06,74108.3,20.17,-0.07,-5.07,0,*4F
1530799264.89,65405,21.06,74108.5,20.23,-0.57,-5.55,0,*7B
1530799266.15,65406,21.06,74110.0,20.25,-0.27,-5.27,0,*7C
1530799267.38,65407,21.13,74110.8,20.25,0.47,-4.49,0,*5F
1530799268.58,65408,21.06,74104.8,20.27,0.41,-4.57,0,*5B
1530799269.82,65409,21.06,74110.5,20.31,0.97,-4.01,0,*55
1530799271.07,65410,21.13,74108.5,20.35,1.25,-3.79,0,*69
1530799272.32,65411,21.06,74108.5,20.39,1.29,-3.75,0,*64
1530799273.53,65412,21.06,74110.8,20.39,1.05,-4.05,0,*69
1530799274.75,65413,21.06,74108.0,20.45,1.13,-3.79,0,*68
1530799275.93,65414,21.06,74106.0,20.45,1.05,-3.87,0,*69
1530799277.14,65415,21.06,74110.3,20.49,1.63,-3.19,0,*63
1530799278.32,65416,21.13,74114.0,20.53,1.83,-3.11,0,*6D
1530799279.5,65417,21.13,74108.3,20.57,1.75,-3.27,0,*64
1530799280.77,65418,21.13,74110.0,20.61,2.09,-2.71,0,*64
1530799282.01,65419,21.13,74112.0,20.67,2.17,-2.63,0,*6F
1530799283.25,65420,21.13,74110.3,20.69,1.89,-2.83,0,*61
1530799284.51,65421,21.06,74108.0,20.73,2.77,-1.99,0,*61
1530799285.74,65422,21.13,74110.8,20.77,2.89,-1.79,0,*69
1530799286.93,65423,21.13,74110.5,20.83,2.95,-1.71,0,*66
1530799288.18,65424,21.13,74108.0,20.85,2.85,-1.91,0,*68
1530799289.39,65425,21.13,74108.0,20.93,2.91,-1.83,0,*68
1530799290.6,65426,21.13,74110.3,20.97,2.47,-2.31,0,*6E
1530799291.84,65427,21.06,74106.0,20.99,2.55,-2.19,0,*68
1530799293.04,65428,21.06,74108.3,21.03,2.61,-2.19,0,*62
1530799294.27,65429,21.06,74104.5,21.07,2.25,-2.87,0,*60
1530799295.51,65430,21.13,74110.0,21.11,1.71,-3.03,0,*60
1530799296.74,65431,21.06,74108.0,21.15,2.43,-2.35,0,*63
1530799297.92,65432,21.13,74108.5,21.17,1.83,-2.95,0,*67
1530799299.12,65433,21.13,74108.3,21.21,2.51,-2.27,0,*66
1530799300.36,65434,21.13,74108.0,21.23,2.55,-2.31,0,*60
1530799301.58,65435,21.13,74108.5,21.29,2.51,-2.23,0,*6C
1530799302.8,65436,21.06,74106.8,21.31,2.35,-2.35,0,*63
1530799304.05,65437,21.13,74108.8,21.35,2.51,-2.15,0,*66
1530799305.29,65438,21.13,74108.8,21.39,2.55,-2.35,0,*63
1530799306.54,65439,21.13,74108.3,21.41,2.13,-2.63,0,*6C
1530799307.81,65440,21.13,74108.3,21.47,2.21,-2.63,0,*65
1530799309.02,65441,21.13,74110.0,21.49,2.05,-2.79,0,*67
1530799310.29,65442,21.13,74110.0,21.51,2.21,-2.71,0,*63
1530799311.5,65443,21.13,74110.3,21.59,2.13,-2.79,0,*63
1530799312.69,65444,21.13,74110.8,21.59,1.79,-3.11,0,*64
1530799313.97,65445,21.13,74108.0,21.61,2.17,-2.75,0,*66
1530799315.19,65446,21.13,74112.3,21.63,2.31,-2.55,0,*61
1530799316.4,65447,21.13,74110.3,21.67,1.93,-2.91,0,*67
1530799317.63,65448,21.13,74110.5,21.71,1.13,-3.79,0,*60
1530799318.84,65449,21.13,74110.0,21.71,1.63,-3.31,0,*6A
1530799320.05,65450,21.13,74108.0,21.75,1.55,-3.39,0,*6B
1530799321.28,65451,21.13,74110.3,21.75,1.43,-3.43,0,*60
1530799322.5,65452,21.13,74110.3,21.79,1.85,-3.03,0,*61
1530799323.75,65453,21.13,74108.5,21.81,1.13,-4.21,0,*6F
1530799324.95,65454,21.06,74108.5,21.83,0.63,-4.49,0,*52
1530799326.18,65455,21.13,74108.0,21.85,0.83,-4.33,0,*56
1530799327.4,65456,21.13,74110.3,21.85,1.01,-4.21,0,*6D
1530799328.61,65457,21.13,74108.5,21.87,1.41,-3.51,0,*6A
1530799329.84,65458,21.13,74108.5,21.89,1.47,-3.47,0,*6A
1530799331.05,65459,21.13,74108.5,21.91,1.75,-3.23,0,*61
1530799332.26,65460,21.13,74110.8,21.93,1.97,-3.03,0,*67
1530799333.48,65461,21.13,74110.0,21.95,1.75,-3.31,0,*6D
1530799334.71,65462,21.06,74108.5,21.95,2.13,-2.79,0,*60
1530799335.96,65463,21.13,74110.5,22.03,2.35,-2.63,0,*62
1530799337.19,65464,21.13,74110.5,22.03,1.89,-3.15,0,*61
1530799338.43,65465,21.13,74112.5,22.07,2.13,-2.99,0,*61
1530799339.61,65466,21.13,74112.0,22.09,1.83,-3.23,0,*66
1530799340.84,65467,21.13,74114.0,22.11,2.05,-2.87,0,*6C
1530799342.05,65468,21.13,74112.0,22.15,2.61,-2.39,0,*60
1530799343.26,65469,21.13,74114.3,22.17,1.93,-3.07,0,*61
1530799344.52,65470,21.13,74108.5,22.19,2.43,-2.59,0,*63
1530799345.73,65471,21.13,74114.5,22.25,2.35,-2.87,0,*6F
1530799347.0,65472,21.13,74112.8,22.25,0.21,-5.23,0,*52
1530799348.21,65473,21.13,74108.3,22.25,-0.49,-6.01,0,*73
1530799349.42,65474,21.13,74112.5,22.21,-0.81,-6.43,0,*72
1530799350.66,65475,21.13,74114.3,22.21,-1.09,-6.85,0,*48
1530799351.9,65476,21.13,74108.3,22.21,-1.33,-7.05,0,*4B
1530799353.15,65477,21.13,74110.0,22.19,-1.01,-6.59,0,*48
1530799354.32,65478,21.13,74110.3,22.17,-0.49,-6.09,0,*71
1530799355.54,65479,21.13,74110.0,22.17,-1.01,-6.73,0,*40
1530799356.78,65480,21.13,74110.3,22.17,-2.07,-7.95,0,*4A
1530799357.97,65481,21.13,74114.0,22.13,-1.71,-7.49,0,*4C
1530799359.17,65482,21.13,74112.3,22.13,-1.09,-6.69,0,*43
1530799360.38,65483,21.13,74110.5,22.13,-0.19,-5.81,0,*77
1530799361.58,65484,21.13,74110.5,22.13,0.17,-5.47,0,*59
1530799362.79,65485,21.13,74110.3,22.13,0.91,-4.61,0,*53
1530799364.03,65486,21.13,74108.8,22.15,1.21,-4.17,0,*6D
1530799365.25,65487,21.13,74110.0,22.17,1.13,-4.29,0,*62
1530799366.5,65488,21.13,74110.8,22.19,1.59,-3.71,0,*67
1530799367.76,65489,21.13,74110.5,22.25,1.93,-3.43,0,*6E
1530799368.98,65490,21.13,74110.0,22.29,1.75,-3.51,0,*61
1530799370.23,65491,21.13,74108.3,22.29,1.97,-3.47,0,*6B
1530799371.44,65492,21.13,74108.3,22.31,1.75,-3.71,0,*68
1530799372.68,65493,21.13,74110.5,22.33,0.91,-4.49,0,*5C
1530799373.89,65494,21.13,74108.8,22.35,1.17,-4.33,0,*6F
1530799375.11,65495,21.13,74112.0,22.37,0.13,-5.43,0,*5F
1530799376.32,65496,21.13,74112.8,22.41,-0.33,-6.05,0,*73
1530799377.56,65497,21.13,74108.3,22.37,-0.49,-6.19,0,*73
1530799378.76,65498,21.13,74108.3,22.37,-0.37,-6.05,0,*78
1530799379.98,65499,21.13,74112.5,22.39,-0.11,-5.81,0,*7C
1530799381.18,65500,21.13,74108.5,22.39,0.29,-5.35,0,*54
1530799382.41,65501,21.13,74110.5,22.41,-0.07,-5.69,0,*42
1530799383.67,65502,21.13,74108.8,22.41,-0.23,-5.77,0,*78
1530799384.91,65503,21.13,74112.0,22.41,-0.07,-5.69,0,*40
1530799386.15,65504,21.13,74110.8,22.41,-1.17,-6.97,0,*45
1530799387.35,65505,21.13,74108.8,22.39,-1.33,-7.15,0,*46
1530799388.61,65506,21.13,74114.5,22.41,-0.23,-5.89,0,*7D
1530799389.84,65507,21.13,74112.5,22.41,0.13,-5.51,0,*57
1530799391.08,65508,21.13,74110.5,22.41,-0.11,-5.77,0,*73
1530799392.3,65509,21.13,74110.8,22.41,-0.69,-6.43,0,*79
1530799393.54,65510,21.13,74110.8,22.41,-0.85,-6.59,0,*78
1530799394.75,65511,21.13,74110.3,22.41,-0.69,-6.43,0,*70
1530799395.99,65512,21.13,74114.3,22.41,-0.85,-6.59,0,*7A
1530799397.24,65513,21.13,74114.3,22.41,-1.67,-7.39,0,*41
1530799398.48,65514,21.13,74110.0,22.41,-1.59,-7.61,0,*46
1530799399.7,65515,21.13,74110.3,22.39,-3.31,-9.37,0,*49
1530799400.91,65516,21.13,74110.8,22.35,-2.51,-8.55,0,*44
1530799402.12,65517,21.13,74110.0,22.35,-2.55,-8.63,0,*44
1530799403.37,65518,21.13,74108.5,22.33,-2.95,-9.15,0,*41
1530799404.58,65519,21.13,74112.5,22.31,-3.23,-9.49,0,*47
1530799405.82,65520,21.13,74114.8,22.27,-3.43,-9.61,0,*46
1530799407.07,65521,21.13,74114.0,22.21,-3.35,-9.61,0,*40
1530799408.32,65522,21.13,74108.5,22.19,-3.71,-10.15,0,*73
1530799409.54,65523,21.13,74110.0,22.17,-3.27,-9.45,0,*42
1530799410.77,65524,21.13,74114.8,22.15,-3.39,-9.71,0,*4F
1530799411.99,65525,21.13,74112.3,22.13,-4.17,-10.63,0,*78
1530799413.27,65526,21.13,74112.3,22.11,-5.27,-11.63,0,*7A
1530799414.46,65527,21.13,74108.8,22.05,-4.61,-11.01,0,*79
1530799415.73,65528,21.13,74112.3,22.03,-4.81,-11.29,0,*74
1530799417.02,65529,21.13,74112.0,21.99,-5.15,-11.63,0,*77
1530799418.26,65530,21.13,74112.5,21.95,-4.99,-11.29,0,*78
1530799419.5,65531,21.13,74112.0,21.91,-4.85,-11.19,0,*73
1530799420.75,65532,21.13,74112.0,21.91,-4.73,-11.01,0,*70
1530799421.97,65533,21.13,74112.5,21.87,-4.99,-11.37,0,*77
1530799423.17,65534,21.13,74114.0,21.83,-4.61,-11.01,0,*76
1530799424.39,65535,21.13,74114.0,21.79,-4.89,-11.23,0,*74
1530799425.57,0,21.13,74114.8,21.79,-4.61,-10.97,0,*7C
1530799426.83,1,21.13,74112.5,21.73,-5.15,-11.63,0,*7F
1530799428.08,2,21.13,74114.0,21.69,-5.03,-11.37,0,*71
1530799429.28,3,21.13,74110.5,21.69,-4.53,-10.85,0,*7C
1530799430.51,4,21.13,74110.8,21.65,-4.61,-10.75,0,*79
1530799431.73,5,21.13,74114.0,21.63,-4.69,-10.79,0,*7A
1530799432.96,6,21.13,74114.8,21.61,-4.53,-10.75,0,*7E
1530799434.2,7,21.13,74108.5,21.59,-5.07,-11.29,0,*7C
1530799435.42,8,21.13,74114.3,21.57,-4.81,-11.15,0,*7D
1530799436.62,9,21.13,74112.0,21.53,-4.85,-11.19,0,*70
1530799437.86,10,21.13,74114.0,21.51,-5.69,-12.21,0,*41
1530799439.13,11,21.13,74114.5,21.47,-5.69,-12.07,0,*43
1530799440.37,12,21.13,74112.5,21.43,-5.81,-12.21,0,*46
1530799441.59,13,21.13,74110.8,21.41,-5.93,-12.21,0,*46
1530799442.83,14,21.13,74112.3,21.39,-5.19,-11.41,0,*49
1530799444.09,15,21.13,74108.8,21.35,-5.23,-11.67,0,*49
1530799445.33,16,21.13,74110.0,21.35,-5.39,-11.73,0,*44
1530799446.57,17,21.13,74112.5,21.29,-5.27,-11.67,0,*42
1530799447.8,18,21.13,74108.0,21.25,-5.73,-12.07,0,*45
1530799449.01,19,21.13,74112.3,21.25,-5.51,-11.85,0,*4D
1530799450.24,20,21.13,74108.3,21.21,-5.81,-12.11,0,*40
1530799451.44,21,21.13,74110.5,21.21,-5.81,-12.03,0,*42
1530799452.64,22,21.13,74114.0,21.17,-5.89,-12.21,0,*4C
1530799453.81,23,21.13,74112.5,21.13,-6.73,-13.23,0,*4C
1530799455.04,24,21.13,74108.3,21.07,-8.25,-14.79,0,*4B
1530799456.23,25,21.13,74110.0,21.05,-7.77,-14.37,0,*4A
1530799457.48,26,21.13,74114.3,20.99,-7.43,-13.83,0,*42
1530799458.68,27,21.13,74108.8,20.97,-7.35,-13.73,0,*43
1530799459.86,28,21.13,74112.0,20.91,-6.59,-12.89,0,*45
1530799461.06,29,21.13,74114.8,20.93,-6.63,-12.89,0,*4F
1530799462.25,30,21.13,74114.0,20.89,-7.49,-13.69,0,*4A
1530799463.42,31,21.13,74114.5,20.83,-7.49,-13.73,0,*4A
1530799464.65,32,21.13,74112.3,20.81,-7.11,-13.33,0,*42
1530799465.86,33,21.13,74114.0,20.77,-6.77,-12.97,0,*44
1530799467.03,34,21.13,74114.3,20.75,-6.89,-13.15,0,*4B
1530799468.25,35,21.13,74114.0,20.73,-7.53,-13.83,0,*45
1530799469.48,36,21.13,74112.5,20.69,-6.69,-12.83,0,*44
1530799470.74,37,21.13,74114.5,20.69,-6.63,-12.79,0,*4A
1530799471.97,38,21.13,74108.8,20.67,-7.69,-14.01,0,*49
1530799473.17,39,21.13,74112.8,20.59,-7.83,-13.93,0,*4D
1530799474.34,40,21.13,74108.8,20.57,-7.19,-13.43,0,*43
1530799475.54,41,21.13,74114.5,20.57,-6.89,-12.83,0,*47
1530799476.75,42,21.13,74114.8,20.51,-7.11,-13.15,0,*4C
1530799477.96,43,21.13,74112.3,20.51,-7.27,-13.47,0,*4F
1530799479.2,44,21.13,74112.0,20.47,-7.23,-13.29,0,*43
1530799480.37,45,21.13,74112.3,20.45,-6.85,-12.89,0,*46
1530799481.58,46,21.13,74110.3,20.45,-6.31,-12.11,0,*4B
1530799482.81,47,21.13,74110.5,20.43,-6.73,-12.75,0,*48
1530799484.05,48,21.13,74108.0,20.39,-7.43,-13.51,0,*4F
1530799485.25,49,21.13,74110.5,20.39,-7.83,-13.93,0,*4C
1530799486.45,50,21.13,74114.8,20.33,-7.43,-13.07,0,*4F
1530799487.66,51,21.13,74110.5,20.33,-6.85,-12.79,0,*4D
1530799488.87,52,21.13,74108.0,20.29,-6.77,-12.61,0,*41
1530799490.11,53,21.13,74112.3,20.29,-6.93,-12.83,0,*46
1530799491.32,54,21.13,74110.5,20.27,-6.81,-12.71,0,*41
1530799492.55,55,21.13,74114.3,20.25,-6.77,-12.61,0,*4A
1530799493.72,56,21.13,74112.5,20.23,-7.53,-13.47,0,*4D
1530799494.94,57,21.13,74112.5,20.17,-7.11,-12.89,0,*4E
1530799496.17,58,21.13,74108.0,20.17,-6.81,-12.53,0,*4E
1530799497.36,59,21.13,74108.3,20.15,-6.55,-12.25,0,*45
1530799498.6,60,21.13,74110.0,20.15,-6.93,-12.65,0,*41
1530799499.81,61,21.13,74108.0,20.15,-7.35,-13.11,0,*4F
1530799501.01,62,21.13,74108.5,20.11,-7.11,-12.83,0,*44
1530799502.24,63,21.13,74112.8,20.09,-7.27,-12.93,0,*48
1530799503.44,64,21.13,74110.0,20.07,-7.49,-13.01,0,*43
1530799504.67,65,21.13,74110.8,20.05,-7.65,-13.55,0,*4F
1530799505.88,66,21.13,74108.8,20.03,-7.57,-13.11,0,*4B
1530799507.12,67,21.13,74110.3,20.01,-7.57,-13.23,0,*49
1530799508.33,68,21.13,74110.0,19.99,-8.51,-14.29,0,*49
1530799509.56,69,21.13,74112.5,19.95,-7.95,-13.61,0,*48
1530799510.81,70,21.13,74110.8,19.93,-7.27,-12.83,0,*42
1530799512.05,71,21.13,74108.0,19.89,-7.43,-12.93,0,*4B
1530799513.23,72,21.13,74114.0,19.91,-7.83,-13.19,0,*4E
1530799514.44,73,21.19,74112.0,19.87,-8.11,-13.65,0,*47
1530799515.65,74,21.13,74108.8,19.85,-7.91,-13.47,0,*45
1530799516.83,75,21.13,74108.3,19.83,-8.75,-14.33,0,*43
1530799518.1,76,21.13,74110.8,19.81,-7.43,-12.79,0,*40
1530799519.35,77,21.13,74112.3,19.81,-7.27,-12.53,0,*4B
1530799520.54,78,21.13,74108.8,19.79,-7.83,-13.19,0,*42
1530799521.74,79,21.13,74108.0,19.77,-8.17,-13.69,0,*48
1530799522.92,80,21.13,74108.0,19.71,-8.17,-13.51,0,*43
1530799524.14,81,21.13,74112.5,19.69,-7.69,-13.07,0,*4E
1530799525.35,82,21.13,74112.8,19.69,-7.49,-12.93,0,*43
1530799526.58,83,21.13,74108.8,19.67,-7.35,-12.57,0,*4F
1530799527.78,84,21.19,74112.5,19.67,-7.49,-12.75,0,*43
1530799529.0,85,21.13,74112.5,19.63,-7.69,-13.15,0,*43
1530799530.25,86,21.13,74112.3,19.63,-7.95,-13.29,0,*4C
1530799531.48,87,21.13,74108.5,19.61,-8.11,-13.33,0,*47
1530799532.71,88,21.13,74108.8,19.59,-8.17,-13.37,0,*41
1530799533.93,89,21.13,74110.8,19.57,-7.43,-12.65,0,*46
1530799535.18,90,21.13,74110.0,19.55,-7.77,-13.01,0,*48
1530799536.42,91,21.19,74114.5,19.53,-7.61,-12.71,0,*4E
1530799537.6,92,21.13,74110.5,19.53,-7.23,-12.47,0,*4E
1530799538.84,93,21.13,74112.3,19.49,-7.27,-12.35,0,*45
1530799540.05,94,21.13,74110.8,19.49,-7.05,-12.25,0,*43
1530799541.23,95,21.13,74110.8,19.49,-7.83,-12.93,0,*41
1530799542.47,96,21.19,74114.8,19.45,-7.77,-12.75,0,*4D
1530799543.7,97,21.13,74112.0,19.45,-7.35,-12.57,0,*4A
1530799544.93,98,21.19,74112.8,19.43,-7.11,-12.15,0,*43
1530799546.12,99,21.13,74110.3,19.41,-7.15,-12.21,0,*43
1530799547.36,100,21.13,74108.3,19.41,-7.39,-12.61,0,*78
1530799548.62,101,21.13,74112.0,19.39,-7.57,-12.83,0,*72
1530799549.84,102,21.13,74108.5,19.37,-7.49,-12.79,0,*75
1530799551.08,103,21.13,74110.5,19.37,-7.61,-12.83,0,*7B
1530799552.31,104,21.13,74108.8,19.35,-7.77,-12.89,0,*73
1530799553.53,105,21.19,74112.5,19.33,-7.53,-12.61,0,*74
1530799554.78,106,21.13,74110.8,19.33,-7.57,-12.79,0,*7A
1530799555.96,107,21.19,74112.0,19.27,-8.29,-13.51,0,*73
1530799557.16,108,21.13,74108.8,19.27,-8.63,-13.79,0,*78
1530799558.39,109,21.19,74110.8,19.25,-8.03,-13.11,0,*73
1530799559.64,110,21.13,74110.3,19.21,-7.95,-13.01,0,*7E
1530799560.88,111,21.13,74108.3,19.19,-8.07,-13.33,0,*71
1530799562.06,112,21.19,74110.3,19.19,-8.41,-13.55,0,*70
1530799563.24,113,21.13,74110.5,19.15,-8.41,-13.47,0,*7E
1530799564.46,114,21.13,74108.0,19.13,-8.33,-13.37,0,*7D
1530799565.68,115,21.13,74108.3,19.11,-8.89,-13.83,0,*70
1530799566.89,116,21.13,74108.0,19.09,-9.01,-14.11,0,*77
1530799568.12,117,21.19,74108.8,19.07,-8.03,-13.01,0,*7D
1530799569.3,118,21.19,74114.5,19.07,-8.67,-13.69,0,*7E
1530799570.56,119,21.19,74114.0,19.01,-8.81,-13.83,0,*75
1530799571.75,120,21.13,74110.3,18.97,-8.55,-13.55,0,*73
1530799572.94,121,21.13,74110.0,18.97,-8.67,-13.55,0,*73
1530799574.14,122,21.13,74108.0,18.93,-8.17,-13.01,0,*72
1530799575.35,123,21.13,74108.0,18.93,-8.41,-13.29,0,*7A
1530799576.57,124,21.13,74110.8,18.91,-8.37,-13.23,0,*74
1530799577.75,125,21.19,74108.0,18.89,-8.67,-13.65,0,*7B
1530799578.95,126,21.13,74108.3,18.85,-8.85,-13.69,0,*74
1530799580.14,127,21.19,74108.8,18.85,-8.17,-12.97,0,*7E
1530799581.35,128,21.13,74110.0,18.85,-8.29,-13.01,0,*72
1530799582.54,129,21.13,74108.5,18.81,-9.27,-14.11,0,*7E
1530799583.76,130,21.19,74110.3,18.79,-8.93,-13.73,0,*7C
1530799585.0,131,21.19,74110.3,18.75,-9.11,-13.73,0,*7A
1530799586.22,132,21.19,74108.8,18.71,-8.89,-13.51,0,*7D
1530799587.46,133,21.19,74110.0,18.71,-8.89,-13.61,0,*7F
1530799588.65,134,21.13,74108.3,18.69,-9.23,-13.93,0,*7D
1530799589.86,135,21.19,74112.0,18.65,-8.89,-13.47,0,*78
1530799591.04,136,21.13,74110.0,18.63,-8.97,-13.43,0,*76
1530799592.23,137,21.19,74110.3,18.59,-9.01,-13.51,0,*73
1530799593.47,138,21.19,74112.8,18.57,-8.89,-13.37,0,*73
1530799594.7,139,21.19,74108.8,18.57,-9.61,-14.11,0,*76
1530799595.9,140,21.19,74112.3,18.55,-8.81,-13.23,0,*73
1530799597.12,141,21.19,74112.5,18.53,-8.71,-13.11,0,*7A
1530799598.33,142,21.13,74110.5,18.49,-8.93,-13.23,0,*7F
1530799599.57,143,21.13,74108.3,18.47,-8.51,-12.71,0,*78
1530799600.81,144,21.19,74114.0,18.45,-9.11,-13.43,0,*78
1530799602.01,145,21.13,74110.3,18.45,-8.97,-13.15,0,*75
1530799603.22,146,21.19,74110.3,18.43,-8.59,-12.75,0,*75
1530799604.49,147,21.19,74112.0,18.41,-8.51,-12.65,0,*7F
1530799605.7,148,21.19,74110.8,18.37,-8.37,-12.47,0,*71
1530799606.94,149,21.13,74108.0,18.37,-9.19,-13.33,0,*7F
1530799608.18,150,21.13,74110.3,18.37,-9.15,-13.07,0,*7C
1530799609.44,151,21.13,74108.3,18.35,-9.37,-13.61,0,*7F
1530799610.67,152,21.19,74112.8,18.31,-9.53,-13.47,0,*7E
1530799611.88,153,21.19,74112.0,18.29,-9.31,-13.33,0,*71
1530799613.09,154,21.13,74108.5,18.27,-9.75,-13.65,0,*7B
1530799614.35,155,21.19,74108.8,18.23,-9.45,-13.29,0,*75
1530799615.59,156,21.19,74110.0,18.23,-9.37,-13.19,0,*70
1530799616.83,157,21.19,74108.5,18.19,-9.41,-13.07,0,*76
1530799618.05,158,21.19,74108.8,18.19,-9.31,-12.97,0,*76
1530799619.26,159,21.19,74108.5,18.13,-9.41,-13.15,0,*71
1530799620.47,160,21.19,74110.5,18.13,-9.83,-13.73,0,*75
1530799621.65,161,21.19,74110.0,18.09,-9.75,-13.47,0,*71
1530799622.87,162,21.19,74108.8,18.09,-9.75,-13.37,0,*75
1530799624.08,163,21.19,74108.5,18.05,-9.61,-13.15,0,*7D
1530799625.32,164,21.13,74108.5,18.03,-9.15,-12.75,0,*78
1530799626.51,165,21.19,74108.8,18.03,-9.05,-12.47,0,*79
1530799627.75,166,21.19,74110.3,18.01,-9.27,-12.79,0,*75
1530799629.0,167,21.19,74110.3,18.01,-9.57,-13.01,0,*7D
1530799630.23,168,21.19,74114.0,17.97,-9.31,-12.65,0,*71
1530799631.45,169,21.19,74112.0,17.95,-8.85,-12.15,0,*7B
1530799632.63,170,21.19,74114.3,17.91,-9.19,-12.39,0,*7D
1530799633.85,171,21.19,74108.8,17.91,-9.57,-13.01,0,*7C
1530799635.03,172,21.19,74110.5,17.87,-9.89,-13.11,0,*7A
1530799636.21,173,21.19,74110.3,17.87,-9.89,-13.11,0,*7B
1530799637.41,174,21.19,74110.8,17.83,-9.83,-13.07,0,*75
1530799638.62,175,21.19,74110.3,17.83,-10.23,-13.37,0,*45
1530799639.86,176,21.19,74110.3,17.81,-9.67,-12.75,0,*7B
1530799641.08,177,21.19,74108.8,17.79,-9.31,-12.35,0,*7A
1530799642.3,178,21.19,74108.3,17.79,-9.05,-12.11,0,*74
1530799643.56,179,21.19,74108.3,17.77,-8.81,-11.77,0,*75
1530799644.78,180,21.19,74108.8,17.75,-8.93,-11.77,0,*72
1530799645.99,181,21.19,74110.0,17.75,-8.63,-11.51,0,*78
1530799647.18,182,21.19,74108.3,17.75,-8.41,-11.19,0,*77
1530799648.4,183,21.19,74110.0,17.73,-8.45,-11.19,0,*74
1530799649.61,184,21.19,74108.3,17.73,-8.37,-11.19,0,*76
1530799650.8,185,21.19,74108.5,17.69,-8.59,-11.23,0,*7D
1530799652.01,186,21.19,74110.3,17.69,-8.71,-11.33,0,*75
1530799653.22,187,21.19,74110.5,17.69,-8.51,-11.19,0,*7E
1530799654.41,188,21.19,74110.5,17.69,-8.71,-11.45,0,*7A
1530799655.6,189,21.19,74114.5,17.69,-8.63,-11.23,0,*78
1530799656.83,190,21.19,74114.5,17.67,-8.63,-11.37,0,*7B
1530799658.02,191,21.19,74110.5,17.65,-8.41,-10.97,0,*73
1530799659.24,192,21.19,74110.5,17.65,-8.59,-11.07,0,*71
1530799660.45,193,21.19,74108.8,17.65,-8.59,-11.07,0,*70
1530799661.65,194,21.19,74112.0,17.65,-8.55,-10.97,0,*73
1530799662.87,195,21.19,74112.0,17.61,-8.51,-11.01,0,*7C
1530799664.09,196,21.19,74110.3,17.61,-9.01,-11.59,0,*76
1530799665.34,197,21.19,74110.5,17.61,-9.41,-11.89,0,*7E
1530799666.6,198,21.19,74110.5,17.59,-8.81,-11.37,0,*72
1530799667.78,199,21.19,74110.8,17.57,-8.55,-10.85,0,*7C
1530799669.0,200,21.19,74108.5,17.57,-8.45,-10.79,0,*7D
1530799670.21,201,21.19,74108.5,17.59,-8.25,-10.57,0,*78
1530799671.45,202,21.19,74110.3,17.55,-8.51,-10.85,0,*7B
1530799672.67,203,21.19,74110.0,17.55,-8.37,-10.57,0,*75
1530799673.91,204,21.19,74108.5,17.55,-8.55,-10.75,0,*76
1530799675.13,205,21.19,74108.5,17.53,-9.71,-11.89,0,*74
1530799676.33,206,21.19,74110.8,17.53,-10.23,-12.29,0,*41
1530799677.55,207,21.19,74110.3,17.49,-10.23,-12.35,0,*46
1530799678.76,208,21.19,74108.0,17.45,-9.67,-11.67,0,*79
1530799679.96,209,21.19,74110.5,17.45,-8.85,-10.89,0,*74
1530799681.17,210,21.19,74110.3,17.43,-8.29,-10.23,0,*7C
1530799682.39,211,21.19,74110.3,17.43,-8.71,-10.49,0,*7C
1530799683.66,212,21.19,74108.5,17.43,-9.11,-11.07,0,*73
1530799684.89,213,21.19,74108.8,17.41,-9.83,-11.77,0,*7C
1530799686.16,214,21.19,74108.5,17.39,-10.71,-12.65,0,*41
1530799687.37,215,21.19,74114.8,17.35,-10.45,-12.25,0,*4F
1530799688.59,216,21.19,74110.0,17.35,-9.23,-11.01,0,*71
1530799689.81,217,21.19,74112.0,17.33,-9.01,-10.75,0,*74
1530799690.99,218,21.19,74108.8,17.33,-9.23,-10.89,0,*78
1530799692.24,219,21.19,74110.3,17.31,-9.19,-10.79,0,*7D
1530799693.47,220,21.19,74108.5,17.31,-9.75,-11.37,0,*76
1530799694.69,221,21.19,74110.3,17.27,-10.53,-12.21,0,*48
1530799695.9,222,21.19,74108.5,17.27,-10.85,-12.39,0,*49
1530799697.12,223,21.19,74110.0,17.21,-10.75,-12.25,0,*4C
1530799698.36,224,21.19,74108.5,17.19,-9.45,-10.97,0,*70
1530799699.59,225,21.19,74112.3,17.19,-9.57,-10.97,0,*72
1530799700.84,226,21.19,74110.0,17.17,-9.11,-10.41,0,*76
1530799702.02,227,21.19,74112.0,17.17,-9.19,-10.53,0,*7C
1530799703.24,228,21.19,74110.8,17.17,-9.11,-10.31,0,*7F
1530799704.46,229,21.19,74114.3,17.15,-9.31,-10.53,0,*7A
1530799705.71,230,21.19,74112.8,17.15,-9.11,-10.31,0,*74
1530799706.91,231,21.19,74114.3,17.13,-8.81,-9.93,0,*4B
1530799708.11,232,21.19,74112.8,17.13,-8.93,-9.93,0,*4B
1530799709.3,233,21.19,74112.0,17.13,-8.85,-9.93,0,*4D
1530799710.48,234,21.19,74108.0,17.13,-8.67,-9.67,0,*4D
1530799711.67,235,21.19,74106.8,17.13,-8.71,-9.67,0,*4B
1530799712.86,236,21.19,74108.5,17.13,-8.93,-9.79,0,*4B